CES720 RJGG-ZSPD

Flight info

Callsign CES720
Flight time 2h 25m
Altitude 28000
Route PIONE Y28 ISAKY Y592 ONIKU A593 LAMEN/K0782F280 A593 AKARA/K0785S0855 A593 DUMET DUM81A
Aircraft A321/M-SDE3FGHIRWYZ/EB1

Departure

Time 2026-05-05 12:36
Airport Chubu Centrair International Airport (RJGG)

Arrival

Time 2026-05-05 15:02
Airport Shanghai Pudong International Airport (ZSPD)
Time Latitude Longitude Altitude Speed Heading
2026-05-05 12:02 34.85685 136.81382 28 ft 0 kts 78°
2026-05-05 12:23 34.85685 136.81381 28 ft 1 kts 78°
2026-05-05 12:24 34.85681 136.81353 28 ft 4 kts 78°
2026-05-05 12:24 34.85675 136.81321 28 ft 3 kts 79°
2026-05-05 12:24 34.85671 136.81293 28 ft 3 kts 64°
2026-05-05 12:24 34.85656 136.81275 28 ft 3 kts
2026-05-05 12:25 34.85634 136.81276 28 ft 1 kts 348°
2026-05-05 12:25 34.85629 136.81277 28 ft 0 kts 348°
2026-05-05 12:27 34.85636 136.81275 28 ft 4 kts 348°
2026-05-05 12:27 34.85679 136.81259 28 ft 6 kts 323°
2026-05-05 12:28 34.85691 136.81213 28 ft 6 kts 269°
2026-05-05 12:28 34.85681 136.81146 28 ft 10 kts 258°
2026-05-05 12:28 34.85668 136.81068 28 ft 9 kts 259°
2026-05-05 12:28 34.85655 136.80989 28 ft 9 kts 259°
2026-05-05 12:29 34.85683 136.80932 28 ft 7 kts 332°
2026-05-05 12:29 34.85757 136.80914 28 ft 16 kts 349°
2026-05-05 12:29 34.85871 136.80886 28 ft 17 kts 348°
2026-05-05 12:29 34.85983 136.80858 28 ft 16 kts 348°
2026-05-05 12:30 34.86091 136.80833 28 ft 16 kts 349°
2026-05-05 12:30 34.86196 136.80808 28 ft 15 kts 349°
2026-05-05 12:30 34.86297 136.80784 28 ft 14 kts 349°
2026-05-05 12:30 34.86393 136.80761 28 ft 14 kts 349°
2026-05-05 12:31 34.86486 136.80738 28 ft 13 kts 349°
2026-05-05 12:31 34.86576 136.80717 28 ft 13 kts 349°
2026-05-05 12:31 34.86665 136.80695 28 ft 15 kts 349°
2026-05-05 12:31 34.86780 136.80668 28 ft 17 kts 349°
2026-05-05 12:32 34.86895 136.80640 28 ft 17 kts 349°
2026-05-05 12:32 34.87006 136.80613 28 ft 16 kts 348°
2026-05-05 12:32 34.87114 136.80587 28 ft 16 kts 349°
2026-05-05 12:32 34.87219 136.80562 28 ft 15 kts 349°
2026-05-05 12:33 34.87315 136.80539 28 ft 13 kts 349°
2026-05-05 12:33 34.87398 136.80515 28 ft 11 kts 333°
2026-05-05 12:33 34.87420 136.80441 28 ft 10 kts 261°
2026-05-05 12:33 34.87407 136.80363 28 ft 9 kts 259°
2026-05-05 12:34 34.87397 136.80303 27 ft 7 kts 259°
2026-05-05 12:34 34.87388 136.80245 27 ft 7 kts 258°
2026-05-05 12:34 34.87371 136.80195 27 ft 6 kts 234°
2026-05-05 12:34 34.87342 136.80178 27 ft 4 kts 187°
2026-05-05 12:35 34.87317 136.80183 27 ft 3 kts 167°
2026-05-05 12:35 34.87311 136.80184 27 ft 0 kts 167°
2026-05-05 12:35 34.87311 136.80185 27 ft 1 kts 167°
2026-05-05 12:35 34.87211 136.80209 28 ft 44 kts 169°
2026-05-05 12:36 34.86662 136.80340 29 ft 113 kts 169°
2026-05-05 12:36 34.85708 136.80569 28 ft 164 kts 167°
2026-05-05 12:36 34.84549 136.80844 533 ft 168 kts 168°
2026-05-05 12:36 34.83388 136.80740 1142 ft 177 kts 205°
2026-05-05 12:37 34.82633 136.79553 1796 ft 188 kts 253°
2026-05-05 12:37 34.82825 136.77961 2345 ft 200 kts 299°
2026-05-05 12:37 34.83659 136.76607 2981 ft 199 kts 308°
2026-05-05 12:37 34.84567 136.75301 3448 ft 210 kts 309°
2026-05-05 12:38 34.85570 136.73911 3740 ft 228 kts 310°
2026-05-05 12:38 34.86696 136.72405 3993 ft 255 kts 310°
2026-05-05 12:38 34.87913 136.70697 4471 ft 276 kts 308°
2026-05-05 12:38 34.89162 136.68879 5262 ft 283 kts 308°
2026-05-05 12:39 34.90420 136.67027 6182 ft 284 kts 308°
2026-05-05 12:39 34.91681 136.65168 7116 ft 285 kts 308°
2026-05-05 12:39 34.92946 136.63297 7944 ft 288 kts 308°
2026-05-05 12:39 34.94233 136.61395 8754 ft 293 kts 307°
2026-05-05 12:40 34.95538 136.59468 9531 ft 297 kts 307°
2026-05-05 12:40 34.96867 136.57509 10272 ft 305 kts 307°
2026-05-05 12:40 34.98264 136.55450 10531 ft 328 kts 307°
2026-05-05 12:40 34.99772 136.53225 10736 ft 350 kts 307°
2026-05-05 12:41 35.01350 136.50896 11223 ft 361 kts 307°
2026-05-05 12:41 35.02964 136.48517 11915 ft 366 kts 307°
2026-05-05 12:41 35.04592 136.46117 12609 ft 370 kts 307°
2026-05-05 12:41 35.06248 136.43678 13386 ft 373 kts 307°
2026-05-05 12:42 35.07911 136.41227 14118 ft 377 kts 306°
2026-05-05 12:42 35.09585 136.38750 14799 ft 380 kts 307°
2026-05-05 12:42 35.11262 136.36246 15517 ft 381 kts 304°
2026-05-05 12:42 35.12546 136.33450 16183 ft 378 kts 287°
2026-05-05 12:43 35.13071 136.30327 16840 ft 375 kts 270°
2026-05-05 12:43 35.12815 136.27174 17500 ft 374 kts 256°
2026-05-05 12:43 35.12286 136.24056 18159 ft 376 kts 256°
2026-05-05 12:43 35.11741 136.20921 18763 ft 379 kts 256°
2026-05-05 12:44 35.11192 136.17772 19325 ft 380 kts 256°
2026-05-05 12:44 35.10643 136.14597 19914 ft 381 kts 257°
2026-05-05 12:44 35.10099 136.11432 20508 ft 382 kts 257°
2026-05-05 12:44 35.09562 136.08297 21091 ft 382 kts 257°
2026-05-05 12:45 35.09012 136.05118 21681 ft 383 kts 257°
2026-05-05 12:45 35.08452 136.01891 22270 ft 384 kts 257°
2026-05-05 12:45 35.07907 135.98741 22838 ft 385 kts 257°
2026-05-05 12:45 35.07347 135.95493 23417 ft 386 kts 257°
2026-05-05 12:46 35.06799 135.92321 23920 ft 388 kts 257°
2026-05-05 12:46 35.06241 135.89102 24419 ft 388 kts 257°
2026-05-05 12:46 35.05680 135.85888 24944 ft 386 kts 257°
2026-05-05 12:46 35.05122 135.82696 25503 ft 383 kts 257°
2026-05-05 12:47 35.04569 135.79523 26064 ft 381 kts 256°
2026-05-05 12:47 35.04017 135.76362 26627 ft 379 kts 256°
2026-05-05 12:47 35.03470 135.73226 27177 ft 377 kts 256°
2026-05-05 12:47 35.02924 135.70101 27721 ft 375 kts 256°
2026-05-05 12:48 35.02381 135.66998 28120 ft 373 kts 256°
2026-05-05 12:48 35.01838 135.63920 28209 ft 366 kts 256°
2026-05-05 12:48 35.00780 135.57956 28218 ft 356 kts 256°
2026-05-05 12:49 34.99905 135.53051 28220 ft 355 kts 256°
2026-05-05 12:49 34.98857 135.47173 28226 ft 355 kts 256°
2026-05-05 12:50 34.97815 135.41297 28216 ft 354 kts 256°
2026-05-05 12:50 34.96769 135.35425 28222 ft 354 kts 256°
2026-05-05 12:51 34.95714 135.29569 28215 ft 354 kts 256°
2026-05-05 12:51 34.94666 135.23721 28210 ft 353 kts 256°
2026-05-05 12:52 34.93623 135.17916 28206 ft 353 kts 256°
2026-05-05 12:52 34.92569 135.12078 28208 ft 353 kts 255°
2026-05-05 12:53 34.91508 135.06237 28206 ft 353 kts 256°
2026-05-05 12:53 34.90446 135.00403 28208 ft 353 kts 255°
2026-05-05 12:54 34.88854 134.91656 28202 ft 353 kts 255°
2026-05-05 12:55 34.87788 134.85826 28208 ft 353 kts 255°
2026-05-05 12:55 34.86721 134.80005 28207 ft 352 kts 255°
2026-05-05 12:56 34.85650 134.74192 28212 ft 352 kts 255°
2026-05-05 12:56 34.84573 134.68369 28221 ft 352 kts 255°
2026-05-05 12:57 34.83496 134.62543 28226 ft 353 kts 255°
2026-05-05 12:57 34.82413 134.56723 28224 ft 353 kts 255°
2026-05-05 12:58 34.81330 134.50895 28221 ft 353 kts 255°
2026-05-05 12:58 34.80244 134.45063 28219 ft 353 kts 255°
2026-05-05 12:59 34.79162 134.39276 28215 ft 353 kts 255°
2026-05-05 12:59 34.78060 134.33411 28218 ft 353 kts 255°
2026-05-05 13:00 34.76423 134.24724 28208 ft 353 kts 255°
2026-05-05 13:01 34.74219 134.13079 28187 ft 354 kts 255°
2026-05-05 13:01 34.73114 134.07249 28185 ft 354 kts 255°
2026-05-05 13:02 34.71997 134.01416 28180 ft 354 kts 254°
2026-05-05 13:02 34.70876 133.95595 28178 ft 354 kts 255°
2026-05-05 13:03 34.69760 133.89778 28180 ft 354 kts 255°
2026-05-05 13:03 34.68642 133.83948 28180 ft 354 kts 255°
2026-05-05 13:04 34.67523 133.78123 28179 ft 354 kts 254°
2026-05-05 13:04 34.66404 133.72344 28182 ft 354 kts 254°
2026-05-05 13:05 34.65274 133.66511 28185 ft 354 kts 254°
2026-05-05 13:05 34.64143 133.60685 28188 ft 354 kts 254°
2026-05-05 13:06 34.63011 133.54867 28191 ft 354 kts 255°
2026-05-05 13:06 34.61875 133.49046 28193 ft 354 kts 254°
2026-05-05 13:07 34.60769 133.43420 28195 ft 354 kts 254°
2026-05-05 13:07 34.59628 133.37636 28191 ft 354 kts 254°
2026-05-05 13:08 34.58483 133.31823 28193 ft 354 kts 254°
2026-05-05 13:08 34.57334 133.26011 28187 ft 355 kts 254°
2026-05-05 13:09 34.56182 133.20192 28181 ft 354 kts 254°
2026-05-05 13:09 34.55028 133.14373 28182 ft 355 kts 254°
2026-05-05 13:10 34.53869 133.08550 28178 ft 355 kts 254°
2026-05-05 13:10 34.52718 133.02742 28181 ft 355 kts 254°
2026-05-05 13:11 34.51556 132.96924 28184 ft 354 kts 254°
2026-05-05 13:11 34.50385 132.91117 28177 ft 354 kts 254°
2026-05-05 13:12 34.49215 132.85317 28177 ft 354 kts 254°
2026-05-05 13:12 34.48047 132.79519 28178 ft 354 kts 254°
2026-05-05 13:13 34.46865 132.73729 28178 ft 353 kts 253°
2026-05-05 13:13 34.45398 132.68058 28181 ft 352 kts 249°
2026-05-05 13:14 34.43763 132.62455 28175 ft 352 kts 249°
2026-05-05 13:14 34.42149 132.56846 28179 ft 352 kts 250°
2026-05-05 13:15 34.40571 132.51220 28176 ft 353 kts 250°
2026-05-05 13:15 34.38995 132.45587 28181 ft 353 kts 250°
2026-05-05 13:16 34.37419 132.39958 28182 ft 353 kts 250°
2026-05-05 13:16 34.35852 132.34365 28187 ft 353 kts 250°
2026-05-05 13:17 34.34267 132.28735 28185 ft 353 kts 249°
2026-05-05 13:17 34.32680 132.23113 28186 ft 354 kts 249°
2026-05-05 13:18 34.31084 132.17475 28184 ft 354 kts 249°
2026-05-05 13:18 34.29488 132.11847 28186 ft 354 kts 249°
2026-05-05 13:19 34.27887 132.06213 28182 ft 354 kts 249°
2026-05-05 13:19 34.26287 132.00587 28177 ft 354 kts 249°
2026-05-05 13:20 34.24685 131.94958 28170 ft 355 kts 249°
2026-05-05 13:20 34.23076 131.89313 28167 ft 354 kts 249°
2026-05-05 13:21 34.21467 131.83694 28167 ft 354 kts 249°
2026-05-05 13:21 34.19859 131.78085 28169 ft 353 kts 249°
2026-05-05 13:22 34.18256 131.72508 28166 ft 353 kts 249°
2026-05-05 13:22 34.16645 131.66907 28164 ft 353 kts 249°
2026-05-05 13:23 34.15029 131.61298 28159 ft 354 kts 249°
2026-05-05 13:23 34.13409 131.55679 28154 ft 355 kts 249°
2026-05-05 13:24 34.11776 131.50046 28151 ft 356 kts 249°
2026-05-05 13:24 34.10137 131.44397 28150 ft 357 kts 249°
2026-05-05 13:25 34.08494 131.38740 28146 ft 357 kts 249°
2026-05-05 13:25 34.06846 131.33077 28143 ft 358 kts 249°
2026-05-05 13:26 34.04759 131.27651 28142 ft 357 kts 243°
2026-05-05 13:26 34.02535 131.22294 28146 ft 357 kts 243°
2026-05-05 13:27 34.00318 131.16943 28150 ft 357 kts 243°
2026-05-05 13:27 33.98108 131.11601 28155 ft 356 kts 243°
2026-05-05 13:28 33.95890 131.06264 28154 ft 356 kts 243°
2026-05-05 13:28 33.93665 131.00933 28152 ft 356 kts 243°
2026-05-05 13:29 33.91445 130.95606 28154 ft 356 kts 243°
2026-05-05 13:29 33.89229 130.90292 28160 ft 355 kts 243°
2026-05-05 13:30 33.87010 130.84991 28162 ft 354 kts 243°
2026-05-05 13:30 33.84794 130.79701 28165 ft 354 kts 243°
2026-05-05 13:31 33.82594 130.74440 28165 ft 355 kts 243°
2026-05-05 13:31 33.80371 130.69153 28161 ft 355 kts 243°
2026-05-05 13:32 33.78138 130.63856 28161 ft 355 kts 243°
2026-05-05 13:32 33.75904 130.58566 28153 ft 355 kts 243°
2026-05-05 13:33 33.73678 130.53275 28151 ft 356 kts 243°
2026-05-05 13:33 33.71441 130.47973 28151 ft 355 kts 243°
2026-05-05 13:34 33.69202 130.42695 28153 ft 354 kts 243°
2026-05-05 13:34 33.66754 130.37580 28156 ft 354 kts 234°
2026-05-05 13:35 33.63770 130.32886 28161 ft 353 kts 234°
2026-05-05 13:35 33.60796 130.28189 28156 ft 354 kts 234°
2026-05-05 13:36 33.58321 130.24280 28154 ft 354 kts 234°
2026-05-05 13:36 33.54844 130.18787 28157 ft 354 kts 234°
2026-05-05 13:37 33.52368 130.14884 28162 ft 354 kts 234°
2026-05-05 13:37 33.49383 130.10190 28162 ft 354 kts 234°
2026-05-05 13:38 33.46390 130.05507 28165 ft 354 kts 234°
2026-05-05 13:38 33.43392 130.00820 28158 ft 354 kts 234°
2026-05-05 13:39 33.40409 129.96144 28163 ft 354 kts 234°
2026-05-05 13:39 33.37425 129.91472 28164 ft 353 kts 234°
2026-05-05 13:40 33.34456 129.86827 28163 ft 353 kts 234°
2026-05-05 13:40 33.31467 129.82169 28167 ft 353 kts 234°
2026-05-05 13:41 33.28476 129.77511 28168 ft 353 kts 234°
2026-05-05 13:41 33.25481 129.72855 28166 ft 353 kts 234°
2026-05-05 13:42 33.22492 129.68214 28167 ft 353 kts 234°
2026-05-05 13:42 33.19911 129.63261 28167 ft 353 kts 246°
2026-05-05 13:43 33.18080 129.57819 28169 ft 353 kts 246°
2026-05-05 13:43 33.16224 129.52386 28170 ft 354 kts 246°
2026-05-05 13:44 33.14363 129.46958 28171 ft 354 kts 246°
2026-05-05 13:44 33.12499 129.41525 28178 ft 353 kts 246°
2026-05-05 13:45 33.10643 129.36108 28176 ft 353 kts 246°
2026-05-05 13:45 33.08780 129.30697 28172 ft 353 kts 246°
2026-05-05 13:46 33.06912 129.25285 28166 ft 353 kts 246°
2026-05-05 13:46 33.05045 129.19870 28165 ft 353 kts 246°
2026-05-05 13:47 33.03191 129.14489 28170 ft 353 kts 246°
2026-05-05 13:47 33.01316 129.09080 28170 ft 353 kts 246°
2026-05-05 13:48 32.99441 129.03674 28174 ft 353 kts 246°
2026-05-05 13:48 32.97563 128.98266 28171 ft 353 kts 246°
2026-05-05 13:49 32.95679 128.92853 28171 ft 353 kts 246°
2026-05-05 13:49 32.93788 128.87442 28172 ft 354 kts 246°
2026-05-05 13:50 32.91902 128.82036 28170 ft 354 kts 246°
2026-05-05 13:50 32.90010 128.76626 28167 ft 354 kts 246°
2026-05-05 13:51 32.88110 128.71200 28164 ft 355 kts 246°
2026-05-05 13:51 32.86206 128.65769 28162 ft 356 kts 246°
2026-05-05 13:52 32.84297 128.60328 28162 ft 356 kts 246°
2026-05-05 13:52 32.82385 128.54890 28165 ft 356 kts 246°
2026-05-05 13:53 32.80478 128.49489 28163 ft 356 kts 246°
2026-05-05 13:53 32.78565 128.44061 28164 ft 356 kts 246°
2026-05-05 13:54 32.76657 128.38632 28165 ft 356 kts 246°
2026-05-05 13:54 32.74732 128.33206 28161 ft 356 kts 246°
2026-05-05 13:55 32.72798 128.27780 28154 ft 357 kts 246°
2026-05-05 13:55 32.70862 128.22343 28156 ft 358 kts 246°
2026-05-05 13:56 32.68919 128.16888 28153 ft 359 kts 246°
2026-05-05 13:56 32.66977 128.11426 28153 ft 360 kts 246°
2026-05-05 13:57 32.65023 128.05948 28151 ft 360 kts 246°
2026-05-05 13:57 32.63064 128.00468 28153 ft 361 kts 246°
2026-05-05 13:58 32.61098 127.94979 28152 ft 361 kts 246°
2026-05-05 13:58 32.59128 127.89500 28158 ft 361 kts 246°
2026-05-05 13:59 32.56175 127.81293 28158 ft 361 kts 246°
2026-05-05 14:00 32.53550 127.74017 28156 ft 360 kts 246°
2026-05-05 14:00 32.51257 127.67663 28154 ft 361 kts 246°
2026-05-05 14:01 32.49281 127.62196 28153 ft 361 kts 246°
2026-05-05 14:01 32.47297 127.56726 28154 ft 362 kts 246°
2026-05-05 14:02 32.45304 127.51240 28149 ft 363 kts 246°
2026-05-05 14:02 32.43302 127.45749 28148 ft 364 kts 246°
2026-05-05 14:03 32.41290 127.40241 28147 ft 365 kts 246°
2026-05-05 14:03 32.39280 127.34727 28143 ft 365 kts 246°
2026-05-05 14:04 32.37268 127.29194 28147 ft 366 kts 246°
2026-05-05 14:04 32.35247 127.23675 28145 ft 366 kts 246°
2026-05-05 14:05 32.33213 127.18153 28144 ft 366 kts 245°
2026-05-05 14:05 32.31179 127.12633 28141 ft 366 kts 246°
2026-05-05 14:06 32.29151 127.07110 28144 ft 366 kts 246°
2026-05-05 14:06 32.27439 127.01434 28139 ft 368 kts 253°
2026-05-05 14:07 32.26161 126.95573 28139 ft 369 kts 253°
2026-05-05 14:07 32.24867 126.89703 28140 ft 369 kts 253°
2026-05-05 14:08 32.23566 126.83824 28144 ft 370 kts 253°
2026-05-05 14:08 32.22266 126.77934 28143 ft 371 kts 253°
2026-05-05 14:09 32.20961 126.72034 28146 ft 372 kts 253°
2026-05-05 14:09 32.19646 126.66120 28143 ft 373 kts 253°
2026-05-05 14:10 32.18348 126.60192 28140 ft 373 kts 254°
2026-05-05 14:10 32.17076 126.54282 28145 ft 374 kts 254°
2026-05-05 14:11 32.15796 126.48333 28145 ft 374 kts 254°
2026-05-05 14:11 32.14509 126.42379 28142 ft 375 kts 254°
2026-05-05 14:12 32.13219 126.36420 28142 ft 375 kts 253°
2026-05-05 14:12 32.11918 126.30454 28145 ft 376 kts 253°
2026-05-05 14:13 32.10611 126.24483 28149 ft 376 kts 253°
2026-05-05 14:13 32.09300 126.18517 28145 ft 376 kts 253°
2026-05-05 14:14 32.07983 126.12538 28145 ft 377 kts 253°
2026-05-05 14:14 32.06665 126.06550 28141 ft 377 kts 253°
2026-05-05 14:15 32.05358 126.00559 28137 ft 378 kts 254°
2026-05-05 14:15 32.04075 125.94547 28141 ft 378 kts 254°
2026-05-05 14:16 32.02797 125.88525 28138 ft 379 kts 254°
2026-05-05 14:16 32.01498 125.82504 28138 ft 379 kts 254°
2026-05-05 14:17 32.00188 125.76487 28136 ft 380 kts 254°
2026-05-05 14:17 31.98847 125.70461 28136 ft 380 kts 253°
2026-05-05 14:18 31.97506 125.64438 28137 ft 380 kts 253°
2026-05-05 14:18 31.96164 125.58413 28133 ft 381 kts 253°
2026-05-05 14:19 31.94823 125.52379 28132 ft 381 kts 253°
2026-05-05 14:19 31.93470 125.46346 28132 ft 381 kts 253°
2026-05-05 14:20 31.92112 125.40303 28132 ft 382 kts 253°
2026-05-05 14:20 31.90751 125.34255 28129 ft 383 kts 253°
2026-05-05 14:21 31.89616 125.29216 28127 ft 383 kts 253°
2026-05-05 14:21 31.88249 125.23153 28128 ft 383 kts 253°
2026-05-05 14:22 31.86879 125.17088 28132 ft 384 kts 253°
2026-05-05 14:22 31.85501 125.11025 28128 ft 384 kts 253°
2026-05-05 14:23 31.84128 125.04955 28128 ft 384 kts 253°
2026-05-05 14:23 31.82747 124.98883 28128 ft 384 kts 253°
2026-05-05 14:24 31.81411 124.92797 28129 ft 385 kts 254°
2026-05-05 14:24 31.80108 124.86682 28129 ft 385 kts 255°
2026-05-05 14:25 31.78797 124.80577 28125 ft 385 kts 254°
2026-05-05 14:25 31.77469 124.74470 28122 ft 386 kts 254°
2026-05-05 14:26 31.76137 124.68351 28122 ft 387 kts 254°
2026-05-05 14:26 31.74800 124.62238 28121 ft 387 kts 254°
2026-05-05 14:27 31.73450 124.56108 28119 ft 388 kts 254°
2026-05-05 14:27 31.72100 124.49978 28120 ft 388 kts 254°
2026-05-05 14:28 31.70750 124.43841 28118 ft 388 kts 254°
2026-05-05 14:28 31.69396 124.37694 28119 ft 389 kts 254°
2026-05-05 14:29 31.68033 124.31547 28119 ft 390 kts 254°
2026-05-05 14:29 31.66659 124.25389 28118 ft 390 kts 254°
2026-05-05 14:30 31.65292 124.19234 28113 ft 390 kts 254°
2026-05-05 14:30 31.63930 124.13119 28116 ft 390 kts 254°
2026-05-05 14:31 31.62554 124.06961 28110 ft 390 kts 254°
2026-05-05 14:31 31.61172 124.00797 28112 ft 391 kts 254°
2026-05-05 14:32 31.59807 123.94617 28112 ft 392 kts 255°
2026-05-05 14:32 31.58459 123.88425 28112 ft 392 kts 255°
2026-05-05 14:33 31.57110 123.82231 28108 ft 392 kts 255°
2026-05-05 14:33 31.55755 123.76043 28105 ft 392 kts 255°
2026-05-05 14:34 31.54398 123.69855 27971 ft 392 kts 255°
2026-05-05 14:34 31.53711 123.66751 27156 ft 393 kts 255°
2026-05-05 14:34 31.53025 123.63661 26355 ft 395 kts 255°
2026-05-05 14:35 31.52335 123.60549 25713 ft 394 kts 255°
2026-05-05 14:35 31.51646 123.57449 25079 ft 392 kts 256°
2026-05-05 14:35 31.50968 123.54404 24461 ft 391 kts 256°
2026-05-05 14:35 31.50287 123.51336 23844 ft 389 kts 256°
2026-05-05 14:36 31.49616 123.48256 23148 ft 388 kts 257°
2026-05-05 14:36 31.49015 123.45231 22492 ft 385 kts 258°
2026-05-05 14:36 31.48440 123.42141 21843 ft 382 kts 258°
2026-05-05 14:36 31.47906 123.39184 21241 ft 379 kts 259°
2026-05-05 14:37 31.47363 123.36176 20636 ft 376 kts 259°
2026-05-05 14:37 31.46817 123.33195 20060 ft 374 kts 258°
2026-05-05 14:37 31.46261 123.30223 19834 ft 374 kts 258°
2026-05-05 14:37 31.45696 123.27246 19805 ft 374 kts 258°
2026-05-05 14:38 31.45127 123.24263 19811 ft 375 kts 258°
2026-05-05 14:38 31.44555 123.21279 19809 ft 375 kts 258°
2026-05-05 14:38 31.43983 123.18295 19811 ft 375 kts 258°
2026-05-05 14:38 31.43413 123.15318 19810 ft 375 kts 258°
2026-05-05 14:39 31.42840 123.12334 19809 ft 375 kts 258°
2026-05-05 14:39 31.42265 123.09360 19809 ft 375 kts 258°
2026-05-05 14:39 31.41687 123.06382 19804 ft 375 kts 258°
2026-05-05 14:39 31.41108 123.03401 19727 ft 375 kts 258°
2026-05-05 14:40 31.40532 123.00429 19482 ft 374 kts 258°
2026-05-05 14:40 31.39965 122.97506 19232 ft 370 kts 258°
2026-05-05 14:40 31.39397 122.94586 18701 ft 367 kts 258°
2026-05-05 14:40 31.38828 122.91653 18128 ft 365 kts 258°
2026-05-05 14:41 31.38279 122.88804 17540 ft 362 kts 258°
2026-05-05 14:41 31.37719 122.85901 16974 ft 359 kts 258°
2026-05-05 14:41 31.37171 122.83062 16431 ft 357 kts 258°
2026-05-05 14:41 31.36622 122.80244 15906 ft 354 kts 258°
2026-05-05 14:42 31.35956 122.77482 15388 ft 352 kts 250°
2026-05-05 14:42 31.34899 122.74950 14893 ft 350 kts 242°
2026-05-05 14:42 31.33729 122.72476 14386 ft 348 kts 242°
2026-05-05 14:42 31.32564 122.69999 13875 ft 346 kts 242°
2026-05-05 14:43 31.31408 122.67537 13315 ft 344 kts 242°
2026-05-05 14:43 31.30261 122.65089 12761 ft 343 kts 242°
2026-05-05 14:43 31.29117 122.62650 12215 ft 341 kts 242°
2026-05-05 14:43 31.27977 122.60231 11691 ft 339 kts 241°
2026-05-05 14:44 31.26844 122.57825 11173 ft 337 kts 241°
2026-05-05 14:44 31.25708 122.55407 10665 ft 335 kts 241°
2026-05-05 14:44 31.24603 122.53055 10171 ft 334 kts 241°
2026-05-05 14:44 31.23480 122.50669 9869 ft 324 kts 241°
2026-05-05 14:45 31.22444 122.48471 9678 ft 298 kts 241°
2026-05-05 14:45 31.21480 122.46426 9366 ft 284 kts 241°
2026-05-05 14:45 31.20524 122.44397 8938 ft 284 kts 241°
2026-05-05 14:45 31.19575 122.42385 8551 ft 282 kts 241°
2026-05-05 14:46 31.18629 122.40387 8142 ft 281 kts 241°
2026-05-05 14:46 31.17690 122.38404 7941 ft 280 kts 241°
2026-05-05 14:46 31.16788 122.36385 7935 ft 281 kts 249°
2026-05-05 14:46 31.16454 122.34148 7942 ft 282 kts 272°
2026-05-05 14:47 31.16887 122.32033 7935 ft 282 kts 296°
2026-05-05 14:47 31.17978 122.30021 7937 ft 283 kts 304°
2026-05-05 14:47 31.19094 122.28131 7939 ft 283 kts 304°
2026-05-05 14:47 31.20217 122.26232 7933 ft 283 kts 304°
2026-05-05 14:48 31.21332 122.24337 7929 ft 283 kts 304°
2026-05-05 14:48 31.22440 122.22441 7935 ft 283 kts 303°
2026-05-05 14:48 31.23548 122.20539 7936 ft 283 kts 303°
2026-05-05 14:48 31.24657 122.18637 7938 ft 283 kts 304°
2026-05-05 14:49 31.25700 122.16853 7935 ft 283 kts 304°
2026-05-05 14:49 31.26815 122.14947 7930 ft 283 kts 304°
2026-05-05 14:49 31.27925 122.13046 7927 ft 283 kts 303°
2026-05-05 14:49 31.29034 122.11142 7929 ft 283 kts 303°
2026-05-05 14:50 31.30145 122.09233 7926 ft 283 kts 304°
2026-05-05 14:50 31.31254 122.07328 7930 ft 283 kts 303°
2026-05-05 14:50 31.32363 122.05419 7922 ft 284 kts 303°
2026-05-05 14:50 31.33469 122.03512 7920 ft 284 kts 303°
2026-05-05 14:51 31.34579 122.01603 7922 ft 284 kts 303°
2026-05-05 14:51 31.35677 121.99716 7918 ft 273 kts 303°
2026-05-05 14:51 31.36715 121.97934 7915 ft 257 kts 303°
2026-05-05 14:51 31.37693 121.96252 7822 ft 245 kts 303°
2026-05-05 14:52 31.38633 121.94632 7723 ft 238 kts 303°
2026-05-05 14:52 31.39510 121.93114 7599 ft 238 kts 303°
2026-05-05 14:52 31.40437 121.91512 7477 ft 237 kts 303°
2026-05-05 14:52 31.41360 121.89916 7348 ft 234 kts 303°
2026-05-05 14:53 31.42003 121.88205 6953 ft 232 kts 277°
2026-05-05 14:53 31.41988 121.86334 6553 ft 231 kts 264°
2026-05-05 14:53 31.41833 121.84487 6157 ft 231 kts 263°
2026-05-05 14:53 31.41664 121.82621 5765 ft 229 kts 263°
2026-05-05 14:54 31.41502 121.80765 5360 ft 228 kts 263°
2026-05-05 14:54 31.41350 121.78924 4980 ft 227 kts 263°
2026-05-05 14:54 31.41216 121.77176 4889 ft 213 kts 263°
2026-05-05 14:54 31.41092 121.75521 4903 ft 198 kts 263°
2026-05-05 14:55 31.40976 121.73932 4901 ft 195 kts 263°
2026-05-05 14:55 31.40850 121.72355 4897 ft 194 kts 259°
2026-05-05 14:55 31.40277 121.71034 4898 ft 190 kts 223°
2026-05-05 14:55 31.39145 121.70187 4896 ft 189 kts 200°
2026-05-05 14:56 31.37854 121.69965 4899 ft 189 kts 176°
2026-05-05 14:56 31.36581 121.70332 4862 ft 187 kts 163°
2026-05-05 14:56 31.35375 121.70790 4644 ft 177 kts 162°
2026-05-05 14:56 31.34358 121.71179 4489 ft 167 kts 162°
2026-05-05 14:57 31.33263 121.71597 4229 ft 164 kts 163°
2026-05-05 14:57 31.32185 121.72006 3967 ft 161 kts 163°
2026-05-05 14:57 31.31099 121.72418 3519 ft 170 kts 163°
2026-05-05 14:57 31.29957 121.72851 3091 ft 174 kts 163°
2026-05-05 14:58 31.28821 121.73282 2775 ft 169 kts 163°
2026-05-05 14:58 31.27731 121.73696 2528 ft 161 kts 163°
2026-05-05 14:58 31.26692 121.74090 2317 ft 152 kts 164°
2026-05-05 14:58 31.25694 121.74468 2120 ft 149 kts 164°
2026-05-05 14:59 31.24711 121.74840 1934 ft 145 kts 165°
2026-05-05 14:59 31.23797 121.75187 1741 ft 134 kts 166°
2026-05-05 14:59 31.22930 121.75515 1568 ft 129 kts 166°
2026-05-05 14:59 31.22077 121.75837 1396 ft 128 kts 166°
2026-05-05 15:00 31.21230 121.76157 1220 ft 128 kts 166°
2026-05-05 15:00 31.20672 121.76368 1106 ft 127 kts 166°
2026-05-05 15:00 31.19547 121.76791 873 ft 127 kts 164°
2026-05-05 15:00 31.18718 121.77106 734 ft 127 kts 163°
2026-05-05 15:01 31.17858 121.77432 548 ft 129 kts 163°
2026-05-05 15:01 31.17017 121.77754 383 ft 130 kts 160°
2026-05-05 15:01 31.16159 121.78094 218 ft 127 kts 163°
2026-05-05 15:01 31.15326 121.78391 46 ft 127 kts 162°
2026-05-05 15:02 31.14551 121.78678 25 ft 92 kts 161°
2026-05-05 15:02 31.14130 121.78846 23 ft 40 kts 162°
2026-05-05 15:02 31.13946 121.78931 23 ft 26 kts 149°
2026-05-05 15:02 31.13813 121.79068 22 ft 25 kts 134°
2026-05-05 15:03 31.13713 121.79189 24 ft 18 kts 134°
2026-05-05 15:03 31.13621 121.79249 23 ft 12 kts 148°
2026-05-05 15:03 31.13611 121.79333 24 ft 11 kts 76°
2026-05-05 15:03 31.13635 121.79421 22 ft 12 kts 72°
2026-05-05 15:04 31.13661 121.79514 23 ft 12 kts 72°
2026-05-05 15:04 31.13686 121.79604 23 ft 11 kts 72°
2026-05-05 15:04 31.13699 121.79651 25 ft 8 kts 72°
2026-05-05 15:04 31.13705 121.79675 23 ft 3 kts 72°
2026-05-05 15:05 31.13737 121.79788 23 ft 8 kts 72°
2026-05-05 15:05 31.13749 121.79830 23 ft 8 kts 72°
2026-05-05 15:05 31.13767 121.79894 23 ft 8 kts 72°
2026-05-05 15:06 31.13785 121.79958 23 ft 8 kts 72°
2026-05-05 15:06 31.13789 121.80021 23 ft 8 kts 115°
2026-05-05 15:06 31.13744 121.80052 23 ft 8 kts 159°
2026-05-05 15:06 31.13691 121.80073 23 ft 8 kts 162°
2026-05-05 15:07 31.13634 121.80095 23 ft 9 kts 162°
2026-05-05 15:07 31.13571 121.80118 23 ft 10 kts 162°
2026-05-05 15:07 31.13505 121.80143 23 ft 10 kts 162°
2026-05-05 15:07 31.13433 121.80170 23 ft 11 kts 162°
2026-05-05 15:08 31.13357 121.80199 23 ft 12 kts 162°
2026-05-05 15:08 31.13307 121.80234 23 ft 5 kts 91°
2026-05-05 15:08 31.13310 121.80278 23 ft 5 kts 81°
2026-05-05 15:08 31.13319 121.80308 25 ft 2 kts 71°
2026-05-05 15:09 31.13323 121.80321 24 ft 2 kts 71°
2026-05-05 15:09 31.13324 121.80326 25 ft 0 kts 71°